Regional Weather Roundup
Issued by NWS

Home | Current Version | Previous Version | Text Only | Print | Product List | Glossary Off
Versions: 1 2 3 4 5 6 7 8 9 10 11 12 13 14 15 16 17 18 19 20 21 22 23 24 25 26 27 28 29 30 31 32 33 34 35 36 37 38 39 40 41 42 43 44 45 46 47 48 49 50

000
ASUS43 KIND 112059
RWRIN

WEATHER ROUNDUP FOR INDIANA
NATIONAL WEATHER SERVICE INDIANAPOLIS IN
400 PM EST MON DEC 11 2017

NOTE: "FAIR" INDICATES FEW OR NO CLOUDS BELOW 12,000 FEET WITH NO
SIGNIFICANT WEATHER AND/OR OBSTRUCTIONS TO VISIBILITY.

* - STATION DOES NOT REPORT WEATHER SUCH AS PRECIPITATION OR FOG.

+ - STATION NOT QUALITY CONTROLLED BY THE NATIONAL WEATHER SERVICE.
    USE DATA WITH CAUTION...ESPECIALLY DEWPOINT AND RELATIVE
    HUMIDITY OBSERVATIONS.

INZ001>003-010>013-019-020-112200-
NORTHWEST INDIANA

CITY           SKY/WX    TMP DP  RH WIND       PRES   REMARKS
GARY /AIRPORT/ CLOUDY    39  25  56 SE6       29.67F WCI  35
MONTICELLO +   CLOUDY    40  26  56 SE3       29.67S

$$

LMZ046-743>745-112200-
SOUTHERN LAKE MICHIGAN

STATION/POSITION TIME  TEMP    WIND        PRES    WAVE
                       AIR SEA DIR/SP/G            HT
                 (UTC) (F)     (DEG/KT/KT) (MB)    (FT)
BURNS HARBOR     2040   36     150/  6/ 13 1005.4F
MICHIGAN CITY    2030   33      90/  7/  8   N/A

$$

INZ004-005-014>016-021>024-112200-
NORTH CENTRAL INDIANA

CITY           SKY/WX    TMP DP  RH WIND       PRES   REMARKS
ELKHART        PTSUNNY   32  25  74 SE7       29.72F WCI  26
GOSHEN         CLOUDY    33  25  72 SE12      29.71F WCI  24
PERU/GRISSOM   CLOUDY    36  29  75 SE10      29.69F WCI  29
SOUTH BEND     CLOUDY    31  26  82 SE9       29.71F WCI  23

$$

INZ006>009-017-018-025>027-112200-
NORTHEAST INDIANA

CITY           SKY/WX    TMP DP  RH WIND       PRES   REMARKS
FORT WAYNE     CLOUDY    35  28  75 SE12      29.74F WCI  27
KENDALLVILLE + MOCLDY    32  26  78 SE12      29.73F WCI  23

$$

INZ028-029-035-036-043>045-051>053-112200-
WEST CENTRAL INDIANA

CITY           SKY/WX    TMP DP  RH WIND       PRES   REMARKS
LAFAYETTE      CLOUDY    44  28  53 S9        29.67S
TERRE HAUTE    CLOUDY    50  30  46 S12       29.68F

$$

INZ030>032-037>040-046>048-054>057-064-065-112200-
CENTRAL INDIANA

CITY           SKY/WX    TMP DP  RH WIND       PRES   REMARKS
ANDERSON       SUNNY     39  28  65 SE8       29.72F WCI  34
COLUMBUS       SUNNY     46  23  39 S12G23    29.72F
INDIANAPOLIS   CLOUDY    45  28  51 S9        29.70F
-EAGLE CREEK   MOSUNNY   46  26  45 S9        29.68F
KOKOMO +       MOSUNNY   37  29  72 SE12      29.70F WCI  29
MT COMFORT *+  MOSUNNY   41  32  70 S9        29.72S
SHELBYVILLE    MOSUNNY   46  27  47 S13       29.71F

$$

INZ033-034-041-042-049-050-058-059-112200-
EAST CENTRAL INDIANA

CITY           SKY/WX    TMP DP  RH WIND       PRES   REMARKS
MUNCIE         SUNNY     40  27  59 SE9       29.72F WCI  34
RICHMOND +     MOSUNNY   36  30  80 SE8       29.77F WCI  29

$$

INZ060-061-067>069-081>083-085>088-112200-
SOUTHWEST INDIANA

CITY           SKY/WX    TMP DP  RH WIND       PRES   REMARKS
EVANSVILLE     SUNNY     56  32  40 SW18G28   29.75F
HUNTINGBURG +  SUNNY     53  32  44 S18G25    29.74F

$$

INZ062-063-066-070>080-084-089>092-112200-
SOUTH CENTRAL AND SOUTHEAST INDIANA

CITY           SKY/WX    TMP DP  RH WIND       PRES   REMARKS
BLOOMINGTON    CLOUDY    48  29  47 S12       29.71R
SEYMOUR +      SUNNY     52  30  43 S13       29.72F

$$





USA.gov is the U.S. government's official web portal to all federal, state and local government web resources and services.